Location: Austin
(30.3000°N, 97.7500°W)
Time: 07:52:38
(UTC-05:00)

ARIANE 5 R/B - Pass Details

Date: 19 September 2023
Orbit: 748 x 794 km, 98.8° (Epoch: 25 September)

Event Time Altitude Azimuth Distance (km) Brightness Sun altitude
Rises 05:17:13 0° 26° (NNE) 3,232 6.4 -26.3°
Reaches altitude 10° 05:19:49 10° 37° (NE) 2,295 5.7 -25.8°
Maximum altitude 05:24:12 30° 98° (E) 1,339 4.3 -24.9°
Drops below altitude 10° 05:28:32 10° 159° (SSE) 2,264 5.0 -24.0°
Sets 05:31:03 0° 169° (S) 3,181 5.6 -23.5°
